Volver al catálogo

DMSP 5D-2 F13 DEB

ActivoPO
NORAD 42295·DEBRIS·🇺🇸 United States

Lanzado Mar 24, 1995 desde Vandenberg Space Force Base

Loading…

Próximos Pases (próximas 24 horas)

TLE

ActualizadoSource: Space-Track

Época: Sep 11, 2026, 05:00 UTC

1 42295U 95015HM  26254.20895238  .00074635  00000-0  51003-2 0  9994
2 42295  98.8502 343.3836 0010154 161.8645 198.2942 15.05772959589173

Sigue DMSP 5D-2 F13 DEB en tiempo real con AllMySat

Download on the App Store